Regional Weather Roundup
Issued by NWS

Home | Current Version | Previous Version | Graphics & Text | Print | Product List | Glossary On
Versions: 1 2 3 4 5 6 7 8 9 10 11 12 13 14 15 16 17 18 19 20 21 22 23 24 25 26 27 28 29 30 31 32 33 34 35 36 37 38 39 40 41 42 43 44 45 46 47 48 49 50
000
ASUS43 KDMX 290401
RWRIA

WEATHER ROUNDUP FOR IOWA
NATIONAL WEATHER SERVICE DES MOINES IA
1100 PM CDT FRI JUL 28 2017

NOTE: "FAIR" INDICATES FEW OR NO CLOUDS BELOW 12,000 FEET WITH NO
SIGNIFICANT WEATHER AND/OR OBSTRUCTIONS TO VISIBILITY.

* - THESE STATIONS ARE NOT NWS STATIONS...THUS NOT UNDER NWS
QUALITY CONTROL.  THEY ALSO DO NOT REPORT WEATHER SUCH
AS PRECIPITATION OR FOG.

IAZ001>003-012>014-020>022-031>034-043>046-290500-
   NORTHWEST IOWA

CITY           SKY/WX    TMP DP  RH WIND       PRES   REMARKS
CARROLL *      CLOUDY    70  68  94 CALM      30.06R
CHEROKEE *     CLEAR     69  65  88 E5        30.07R
DENISON *      CLEAR     68  66  94 CALM      30.07S
ORANGE CITY *  CLEAR     72  64  78 E3        30.08R
SHELDON *      CLEAR     64  63  94 E3        30.07R
SIOUX CITY     CLEAR     67  63  87 CALM      30.06R
SPENCER        CLOUDY    66  63  90 E5        30.08R
STORM LAKE *   CLEAR     68  64  88 E6        30.08R
$$

IAZ055>058-069>071-079>083-090>094-290500-
   SOUTHWEST IOWA

CITY           SKY/WX    TMP DP  RH WIND       PRES   REMARKS
ATLANTIC *     CLEAR     68  66  94 N5        30.05R
AUDUBON *      CLEAR     66  63  88 CALM      30.08R
CLARINDA *       N/A     73  64  73 E6        30.06R
COUNCIL BLFS * CLEAR     72  66  83 NE7       30.05S
CRESTON *      CLEAR     68  63  83 E6        30.07R
HARLAN  *      CLEAR     66  66 100 CALM      30.09R
LAMONI         CLEAR     71  60  68 E3        30.05R
RED OAK *      CLEAR     70  66  88 NE3       30.04S
SHENANDOAH *   PTCLDY    70  68  94 NE3       30.04R
$$

IAZ047>049-059>061-072>074-084-290500-
   CENTRAL IOWA

CITY           SKY/WX    TMP DP  RH WIND       PRES   REMARKS
AMES           CLEAR     71  66  84 E5        30.06R
ANKENY *       CLEAR     70  64  83 E5        30.06S
BOONE *        CLEAR     68  63  83 E6        30.06R
CHARITON *     CLEAR     70  61  73 NE6       30.05R
DES MOINES     PTCLDY    75  63  66 E5        30.04S
GRINNELL*      PTCLDY    65  61  87 E6        30.08S
KNOXVILLE *    MOCLDY    72  61  68 E7        30.04S
MARSHALLTOWN   CLEAR     65  61  87 E7        30.06R
NEWTON *       CLEAR     68  63  83 E8        30.06S
PELLA *        CLEAR     71  61  69 E6        30.06S
PERRY *          N/A     68  66  92 E5        30.05S
$$

IAZ004>006-015-016-023>025-035-036-290500-
   NORTH CENTRAL IOWA

CITY           SKY/WX    TMP DP  RH WIND       PRES   REMARKS
ALGONA *       CLEAR     70  64  83 E5        30.09R
CLARION *      PTCLDY    66  64  94 E8        30.08R
ESTHERVILLE    CLEAR     64  63  96 E6        30.08R
FORT DODGE *   PTCLDY    66  63  88 E6        30.08R
MASON CITY     CLEAR     63  59  87 E5        30.10S
FOREST CITY *    N/A     68  57  68 E3        30.09R
WEBSTER CITY * CLEAR     68  64  88 E6        30.05S
IOWA FALLS *     N/A     66  62  85 E3        30.09S
$$

IAZ007>011-017>019-026>030-037>042-050>054-066-290500-
   NORTHEAST IOWA

CITY           SKY/WX    TMP DP  RH WIND       PRES   REMARKS
CEDAR RAPIDS   CLEAR     65  59  81 E5        30.05S
CHARLES CITY * CLEAR     61  61 100 NE3       30.09S
DECORAH *      CLEAR     64  57  77 CALM      30.08R
DUBUQUE        PTCLDY    66  58  75 NE5       30.07S
MONTICELLO *   CLEAR     61  59  94 CALM      30.06S
OELWEIN *      CLEAR     64  59  82 NE3       30.08S
WATERLOO       CLEAR     63  57  81 CALM      30.06S
$$

IAZ064-065-067-068-078-290500-
   EAST CENTRAL IOWA

CITY           SKY/WX    TMP DP  RH WIND       PRES   REMARKS
DAVENPORT      CLEAR     64  58  80 NE7       30.07R
IOWA CITY      PTCLDY    70  58  65 CALM      30.07R
MUSCATINE *    PTCLDY    66  61  82 NE5       30.05R
QUAD CITIES    PTCLDY    67  59  75 CALM      30.04R
$$

IAZ062-063-075>077-085>089-095>099-290500-
   SOUTHEAST IOWA

CITY           SKY/WX    TMP DP  RH WIND       PRES   REMARKS
BURLINGTON     CLEAR     66  61  84 N6        30.04R
FAIRFIELD *    CLEAR     64  57  77 NE3       30.05R
FORT MADISON * CLEAR     66  63  88 CALM      30.05R
KEOKUK *       CLEAR     68  61  77 NE5       30.03R
OSKALOOSA *      N/A     64  60  85 E3        30.06S
OTTUMWA        CLEAR     70  61  73 E6        30.05R
$$

ABBREVIATIONS USED IN REMARKS
   TC - TEMPERATURES IN CELSIUS
  WCI - WIND CHILL INDEX
   HX - HEAT INDEX
  VSB - VISIBILITY
$$




USA.gov is the U.S. government's official web portal to all federal, state and local government web resources and services.